Погода в Веселом

Россия / Белгородская область     50°37′57″N   38°09′23″E
темп.,
°C
ветер,
м/с
пор.,
м/с
влажн.,
%
обл.,
%
осадки,
мм/ч
давл.,
гПа
погр.,
м
5 марта, пт
пт500:00+2зюз6139695 0.1 1006498
03:00+2з5119597 0.2 1006443
06:00+1зсз51097100 0.1 1007490
09:00+1сз578384 0.1 1009619
12:00+1сз457890 0.0 1011721
15:000сз457695 0.1 1012761
18:000ссз2377100 0.0 1014215
21:00−1ссв228198 0.0 101529
6 марта, сб
сб600:00−2ссз1183100 0.0 101626
03:00−2с248899 0.0 1017240
06:00−2с2386100 0.0 1016319
09:00−2ссз3476100 0.0 1017461
12:00−1ссз5664100 0.0 1017909
15:00−1сз675198 0.1 10161590
18:00−4ссз797482 0.1 1018903
21:00−5ссз7106582 0.1 1019885
7 марта, вс
вс700:00−4сз58630 0.0 1020924
03:00−5зсз58650 0.0 1021685
06:00−5зюз59660 0.0 1020627
09:00−3зюз7116312 0.0 1018944
12:00−1юз91449100 0.0 10151271
15:00+1юз111744100 0.0 10111492
18:000зюз111873100 0.0 10081353
21:00−1зюз101689100 0.2 10081156
8 марта, пн
пн800:00−4ссз379399 2.3 1008383
03:00−1зюз7139599 3.7 1007939
06:00−1зюз81493100 0.4 1005907
09:00−2зсз71184100 0.9 1006867
12:00−2зсз81270100 0.3 10071321
15:00−3зсз81260100 0.3 10081372
18:00−5зсз7116866 0.0 10101109
21:00−6зсз5107549 0.0 1014805
9 марта, вт
вт900:00−7з49800 0.0 1015453
03:00−7з49820 0.0 1015389
06:00−8зсз37870 0.0 1016312
09:00−7зсз468446 0.0 1017492
12:00−5зсз5776100 0.1 1017923
15:00−6сз6769100 0.1 10181048
18:00−8сз6875100 0.0 1020828
21:00−9сз598096 0.0 1023656